Flag for Israel Weather past 2 weeks in Ashdod, Israel

Now
90 °F

Passing clouds.


Feels Like: 96 °F
Forecast: 79 / 88 °F
Wind: 12 mph from Northwest

Location: Ben Gurion International Airport

Current Time: Sep 2, 2015 at 2:11:34 PM

Latest Report: Sep 2, 2015 at 1:20 PM


Visibility: N/A

Pressure: 29.83 "Hg

Humidity: 55%

Dew point: 72 °F

Location of AshdodLocation

Historic Weather in Ashdod — Graph

°F

Ashdod temperature yesterday

Maximum temperature yesterday: 90 °F (at 11:20 AM)
Minimum temperature yesterday: 77 °F (at 3:20 AM)
Average temperature yesterday: 84 °F

Past Weeks' High & Low Weather Summary

 TemperatureHumidityPressure
High93 °F (Aug 18, 12:50 PM)83% (Aug 28, 4:20 AM)29.89 "Hg (Aug 28, 4:20 AM)
Low75 °F (Aug 26, 4:20 AM)46% (Aug 18, 1:50 PM)29.71 "Hg (Aug 23, 3:20 PM)
Average84 °F65%29.81 "Hg
* Reported Aug 18 12:20 PM — Sep 2 12:50 PM, Ashdod, Weather by CustomWeather, © 2015

Note: Actual official high and low records may vary slightly from our data, if they occured in-between our weather recording intervals... More about our weather records

Advertising

Ashdod weather history for previous 24 hours

 ConditionsComfort  
Time TempWeatherWind HumidityBarometerVisibility
12:50 PM
Wed, Sep 2
91 °FPassing clouds.10 mph52%29.83 "HgN/A
12:20 PM90 °FPassing clouds.7 mph55%29.86 "HgN/A
11:50 AM91 °FPassing clouds.5 mph52%29.86 "HgN/A
11:20 AM90 °FPassing clouds.5 mph52%29.86 "HgN/A
10:50 AM90 °FPassing clouds.3 mph52%29.86 "HgN/A
10:20 AM88 °FPassing clouds.3 mph59%29.86 "HgN/A
9:50 AM86 °FPassing clouds.3 mph62%29.86 "HgN/A
9:20 AM86 °FPassing clouds.1 mph66%29.86 "HgN/A
8:50 AM84 °FPassing clouds.2 mph70%29.86 "HgN/A
8:20 AM81 °FPassing clouds.3 mph74%29.86 "HgN/A
7:50 AM79 °FPassing clouds.3 mph74%29.86 "HgN/A
7:20 AM79 °FPassing clouds.2 mph74%29.86 "HgN/A
6:50 AM77 °FClear.3 mph79%29.86 "Hg10 mi
6:20 AM77 °FClear.3 mph79%29.86 "Hg10 mi
5:50 AM77 °FClear.3 mph79%29.86 "Hg10 mi
5:20 AM77 °FClear.5 mph79%29.86 "Hg10 mi
4:50 AM77 °FClear.5 mph79%29.83 "Hg10 mi
4:20 AM77 °FClear.2 mph79%29.83 "Hg10 mi
3:50 AM77 °FClear.5 mph79%29.86 "Hg10 mi
3:20 AM77 °FClear.6 mph79%29.86 "Hg10 mi
2:50 AM79 °FClear.5 mph79%29.86 "Hg10 mi
2:20 AM79 °FClear.6 mph79%29.86 "Hg10 mi
1:50 AM79 °FClear.3 mph79%29.86 "Hg10 mi
12:20 AM81 °FClear.2 mph74%29.86 "Hg10 mi
11:50 PM
Tue, Sep 1
81 °FClear.3 mph79%29.86 "Hg10 mi
11:20 PM82 °FClear.2 mph74%29.86 "Hg10 mi
10:50 PM82 °FClear.3 mph74%29.86 "Hg10 mi
10:20 PM82 °FClear.2 mph74%29.86 "Hg10 mi
9:50 PM82 °FClear.3 mph74%29.86 "Hg10 mi
9:20 PM82 °FClear.6 mph74%29.86 "Hg10 mi
8:50 PM82 °FClear.6 mph74%29.86 "Hg10 mi
8:20 PM84 °FClear.6 mph70%29.86 "Hg10 mi
7:50 PM84 °FSunny.7 mph70%29.86 "Hg10 mi
7:20 PM84 °FSunny.7 mph70%29.83 "Hg10 mi
6:50 PM86 °FSunny.7 mph62%29.83 "Hg10 mi
6:20 PM86 °FSunny.9 mph62%29.83 "Hg10 mi
5:50 PM88 °FSunny.9 mph55%29.83 "Hg10 mi
5:20 PM88 °FSunny.9 mph59%29.83 "Hg10 mi
4:50 PM90 °FSunny.10 mph55%29.83 "Hg10 mi
4:20 PM90 °FPassing clouds.13 mph55%29.83 "HgN/A
3:50 PM90 °FPassing clouds.13 mph52%29.83 "HgN/A
3:20 PM90 °FPassing clouds.13 mph52%29.83 "HgN/A
2:50 PM90 °FPassing clouds.12 mph55%29.83 "HgN/A
2:20 PM90 °FPassing clouds.12 mph55%29.86 "HgN/A
Weather by CustomWeather, © 2015

See weather overviewHow to use our weather pages